• In Lithuania
  • List of Countries
  • For 7 days
  • Water Temperature
  • Satellite Maps
  • Weather Map
  • Weather Widgets
  • user-avatar
    Login

    Hourly Weather Florianópolis

    Today, 19 September, Wednesday

    Time Temperature Precipitation Wind Pressure Humidity
    00:00 +18°C° 0 mm 1 mps 757 mmHg 94%
    01:00 +18°C° 0 mm 1 mps 757 mmHg 94%
    02:00 +18°C° 0 mm 1 mps 757 mmHg 94%
    03:00 +17°C° 0 mm 2 mps 757 mmHg 94%
    04:00 +17°C° 0 mm 2 mps 757 mmHg 95%
    05:00 +17°C° 0 mm 2 mps 758 mmHg 95%
    06:00 +17°C° 0 mm 2 mps 758 mmHg 96%
    07:00 +20°C° 0 mm 2 mps 758 mmHg 84%
    08:00 +24°C° 0 mm 2 mps 759 mmHg 71%
    09:00 +27°C° 0 mm 2 mps 759 mmHg 59%
    10:00 +29°C° 0 mm 2 mps 759 mmHg 52%
    11:00 +31°C° 0 mm 2 mps 759 mmHg 46%
    12:00 +34°C° 0 mm 2 mps 759 mmHg 39%
    13:00 +35°C° 0 mm 2 mps 758 mmHg 39%
    14:00 +35°C° 0 mm 3 mps 758 mmHg 38%
    15:00 +36°C° 0 mm 3 mps 758 mmHg 38%
    16:00 +33°C° 0 mm 3 mps 758 mmHg 50%
    17:00 +29°C° 0 mm 2 mps 759 mmHg 62%
    18:00 +26°C° 0 mm 2 mps 759 mmHg 75%
    19:00 +25°C° 0 mm 1 mps 760 mmHg 79%
    20:00 +24°C° 0 mm 1 mps 760 mmHg 82%
    21:00 +22°C° 0 mm 1 mps 761 mmHg 86%
    22:00 +22°C° 0 mm 1 mps 761 mmHg 87%
    23:00 +22°C° 0 mm 1 mps 761 mmHg 89%

    Tomorrow, 20 September, Thursday

    Time Temperature Precipitation Wind Pressure Humidity
    00:00 +21°C° 0 mm 1 mps 761 mmHg 90%
    01:00 +21°C° 0 mm 1 mps 761 mmHg 91%
    02:00 +21°C° 0 mm 1 mps 761 mmHg 92%
    03:00 +21°C° 0 mm 1 mps 760 mmHg 93%
    04:00 +21°C° 1 mm 1 mps 760 mmHg 95%
    05:00 +20°C° 1 mm 2 mps 761 mmHg 96%
    06:00 +20°C° 1 mm 2 mps 761 mmHg 98%
    07:00 +20°C° 1 mm 2 mps 762 mmHg 98%
    08:00 +21°C° 1 mm 2 mps 762 mmHg 97%
    09:00 +21°C° 1 mm 2 mps 763 mmHg 97%
    10:00 +23°C° 1 mm 2 mps 763 mmHg 96%
    11:00 +23°C° 1 mm 2 mps 762 mmHg 95%
    12:00 +24°C° 1 mm 2 mps 762 mmHg 94%
    13:00 +24°C° 0.9 mm 2 mps 762 mmHg 95%
    14:00 +24°C° 0.9 mm 2 mps 761 mmHg 95%
    15:00 +24°C° 0.9 mm 2 mps 761 mmHg 96%
    16:00 +23°C° 1.5 mm 2 mps 761 mmHg 97%
    17:00 +23°C° 1.5 mm 2 mps 761 mmHg 98%
    18:00 +21°C° 1.5 mm 2 mps 761 mmHg 99%
    19:00 +21°C° 1.8 mm 2 mps 761 mmHg 99%
    20:00 +21°C° 1.8 mm 2 mps 761 mmHg 99%
    21:00 +20°C° 1.8 mm 2 mps 762 mmHg 99%
    22:00 +20°C° 0.1 mm 2 mps 762 mmHg 99%
    23:00 +20°C° 0.1 mm 3 mps 761 mmHg 99%

    Day after tomorrow, 21 September, Friday

    Time Temperature Precipitation Wind Pressure Humidity
    00:00 +20°C° 0.1 mm 3 mps 761 mmHg 99%
    01:00 +20°C° 0.1 mm 3 mps 761 mmHg 99%
    02:00 +20°C° 0.1 mm 3 mps 761 mmHg 99%
    03:00 +20°C° 0.1 mm 2 mps 760 mmHg 99%
    04:00 +20°C° 0 mm 2 mps 760 mmHg 99%
    05:00 +20°C° 0 mm 2 mps 760 mmHg 99%
    06:00 +20°C° 0 mm 2 mps 761 mmHg 99%
    07:00 +21°C° 0 mm 2 mps 761 mmHg 95%
    08:00 +23°C° 0 mm 2 mps 761 mmHg 91%
    09:00 +24°C° 0 mm 2 mps 762 mmHg 87%
    10:00 +26°C° 0 mm 2 mps 762 mmHg 77%
    11:00 +28°C° 0 mm 2 mps 762 mmHg 68%
    12:00 +30°C° 0 mm 2 mps 762 mmHg 58%
    13:00 +29°C° 0 mm 3 mps 761 mmHg 60%
    14:00 +29°C° 0 mm 3 mps 760 mmHg 63%
    15:00 +29°C° 0 mm 3 mps 760 mmHg 65%
    16:00 +27°C° 0 mm 3 mps 760 mmHg 73%
    17:00 +26°C° 0 mm 3 mps 760 mmHg 80%
    18:00 +24°C° 0 mm 3 mps 760 mmHg 87%
    19:00 +23°C° 0 mm 2 mps 761 mmHg 91%
    20:00 +21°C° 0 mm 2 mps 761 mmHg 95%
    21:00 +21°C° 0 mm 1 mps 762 mmHg 99%
    22:00 +21°C° 0 mm 1 mps 762 mmHg 99%
    23:00 +21°C° 0 mm 1 mps 762 mmHg 98%

    22 September, Saturday

    Time Temperature Precipitation Wind Pressure Humidity
    00:00 +19°C° 0 mm 0 mps 762 mmHg 98%
    01:00 +21°C° 0 mm 1 mps 762 mmHg 98%
    02:00 +21°C° 0 mm 1 mps 761 mmHg 98%
    03:00 +21°C° 0 mm 1 mps 761 mmHg 98%
    04:00 +21°C° 0 mm 1 mps 761 mmHg 98%
    05:00 +20°C° 0 mm 1 mps 761 mmHg 99%
    06:00 +20°C° 0 mm 1 mps 762 mmHg 99%
    07:00 +22°C° 0 mm 1 mps 762 mmHg 89%
    08:00 +25°C° 0 mm 1 mps 762 mmHg 79%
    09:00 +27°C° 0 mm 1 mps 763 mmHg 69%
    10:00 +29°C° 0 mm 2 mps 762 mmHg 63%
    11:00 +30°C° 0 mm 3 mps 762 mmHg 57%
    12:00 +33°C° 0 mm 3 mps 761 mmHg 50%
    13:00 +33°C° 0 mm 4 mps 761 mmHg 52%
    14:00 +33°C° 0 mm 4 mps 760 mmHg 54%
    15:00 +33°C° 0 mm 4 mps 760 mmHg 55%
    16:00 +29°C° 0 mm 4 mps 760 mmHg 66%
    17:00 +27°C° 0 mm 4 mps 760 mmHg 76%
    18:00 +25°C° 0 mm 4 mps 760 mmHg 87%
    19:00 +23°C° 0 mm 4 mps 760 mmHg 90%
    20:00 +22°C° 0 mm 4 mps 761 mmHg 93%
    21:00 +21°C° 0 mm 4 mps 762 mmHg 96%
    22:00 +21°C° 0 mm 4 mps 761 mmHg 95%
    23:00 +21°C° 0 mm 4 mps 761 mmHg 95%

    23 September, Sunday

    Time Temperature Precipitation Wind Pressure Humidity
    00:00 +21°C° 0 mm 4 mps 761 mmHg 95%
    01:00 +21°C° 0 mm 4 mps 761 mmHg 94%
    02:00 +21°C° 0 mm 4 mps 761 mmHg 94%
    03:00 +21°C° 0 mm 4 mps 760 mmHg 94%
    04:00 +21°C° 0 mm 4 mps 761 mmHg 94%
    05:00 +21°C° 0 mm 4 mps 761 mmHg 95%
    06:00 +21°C° 0 mm 3 mps 761 mmHg 95%
    07:00 +22°C° 0 mm 4 mps 762 mmHg 88%
    08:00 +25°C° 0 mm 4 mps 762 mmHg 81%
    09:00 +27°C° 0 mm 4 mps 762 mmHg 74%
    10:00 +29°C° 0 mm 4 mps 761 mmHg 67%
    11:00 +33°C° 0 mm 5 mps 761 mmHg 59%
    12:00 +35°C° 0 mm 5 mps 761 mmHg 51%
    13:00 +35°C° 0 mm 5 mps 760 mmHg 51%
    14:00 +35°C° 0 mm 5 mps 759 mmHg 51%
    15:00 +35°C° 0 mm 5 mps 758 mmHg 51%
    16:00 +33°C° 0 mm 5 mps 759 mmHg 62%
    17:00 +29°C° 0 mm 5 mps 759 mmHg 74%
    18:00 +26°C° 0 mm 4 mps 759 mmHg 85%
    19:00 +25°C° 0 mm 4 mps 759 mmHg 89%
    20:00 +23°C° 0 mm 4 mps 760 mmHg 93%
    21:00 +22°C° 0 mm 3 mps 761 mmHg 97%
    22:00 +22°C° 0 mm 4 mps 760 mmHg 97%
    23:00 +22°C° 0 mm 4 mps 760 mmHg 97%

    24 September, Monday

    Time Temperature Precipitation Wind Pressure Humidity
    00:00 +21°C° 0 mm 4 mps 760 mmHg 97%
    01:00 +21°C° 0 mm 4 mps 760 mmHg 97%
    02:00 +21°C° 0 mm 4 mps 759 mmHg 96%
    03:00 +21°C° 0 mm 4 mps 759 mmHg 96%
    04:00 +21°C° 0.1 mm 4 mps 759 mmHg 96%
    05:00 +21°C° 0.1 mm 3 mps 759 mmHg 96%
    06:00 +21°C° 0.1 mm 3 mps 759 mmHg 96%
    07:00 +24°C° 0.5 mm 3 mps 760 mmHg 90%
    08:00 +27°C° 0.5 mm 3 mps 760 mmHg 83%
    09:00 +29°C° 0.5 mm 3 mps 760 mmHg 77%
    10:00 +31°C° 0.1 mm 3 mps 760 mmHg 66%
    11:00 +35°C° 0.1 mm 4 mps 759 mmHg 54%
    12:00 +38°C° 0.1 mm 4 mps 759 mmHg 43%
    13:00 +37°C° 0 mm 4 mps 759 mmHg 43%
    14:00 +37°C° 0 mm 4 mps 758 mmHg 43%
    15:00 +37°C° 0 mm 4 mps 758 mmHg 43%
    16:00 +34°C° 0.8 mm 3 mps 758 mmHg 59%
    17:00 +30°C° 0.8 mm 2 mps 759 mmHg 75%
    18:00 +27°C° 0.8 mm 1 mps 759 mmHg 91%
    19:00 +26°C° 0.4 mm 1 mps 759 mmHg 94%
    20:00 +25°C° 0.4 mm 1 mps 760 mmHg 96%
    21:00 +24°C° 0.4 mm 1 mps 760 mmHg 99%
    22:00 +24°C° 0.2 mm 1 mps 760 mmHg 99%
    23:00 +24°C° 0.2 mm 1 mps 760 mmHg 99%
    Show more